Back to catalog

ATLAS CENTAUR R/B

AliveGTO
NORAD 10976·ROCKET BODY·🇺🇸 United States

Launched Jun 29, 1978 from Cape Canaveral Space Force Station

Loading…

TLE

FreshSource: Space-Track

Epoch: Sep 14, 2026, 19:42 UTC

1 10976U 78068B   26257.82091587 -.00000038  00000-0  60644-3 0  9999
2 10976  21.3987 114.8210 7174892 173.0914 348.4824  2.22420768388167

Track ATLAS CENTAUR R/B in real time with AllMySat

Download on the App Store